Flag for U.S.A. Weather past 2 weeks in Louisville, Kentucky, U.S.A.

Now
20 °F

Light snow. Ice fog.


Feels Like: 8 °F
Forecast: 14 / 26 °F
Wind: 12 mph from North

Location: Standiford Field

Current Time: Mar 5, 2015 at 6:13:25 AM

Latest Report: Mar 5, 2015 at 5:56 AM


Visibility: 1 mi

Pressure: 30.31 "Hg

Humidity: 85%

Dew point: 16 °F

Location of LouisvilleLocation

Historic Weather in Louisville — Graph

°F

Louisville temperature yesterday

Maximum temperature yesterday: 44 °F (at 12:56 AM)
Minimum temperature yesterday: 23 °F (at 11:56 PM)
Average temperature yesterday: 36 °F

Past Weeks' High & Low Weather Summary

 TemperatureHumidityPressure
High63 °F (Mar 3, 5:56 PM)97% (Feb 21, 3:56 PM)30.73 "Hg (Feb 21, 3:56 PM)
Low-5 °F (Feb 20, 3:56 AM)33% (Feb 24, 4:56 PM)29.78 "Hg (Mar 3, 4:56 PM)
Average26 °F66%30.26 "Hg
* Reported Feb 18 4:56 AM — Mar 5 4:56 AM, Louisville, Weather by CustomWeather, © 2015

Note: Actual official high and low records may vary slightly from our data, if they occured in-between our weather recording intervals... More about our weather records

Advertising

Louisville weather history for previous 24 hours

 ConditionsComfort  
Time TempWeatherWind HumidityBarometerVisibility
4:56 AM
Thu, Mar 5
20 °FLight snow. Ice fog.16 mph85%30.30 "Hg1 mi
3:56 AM20 °FLight snow. Ice fog.16 mph85%30.28 "Hg1 mi
2:56 AM21 °FLight snow. Ice fog.14 mph85%30.28 "Hg1 mi
1:56 AM22 °FLight snow. Ice fog.13 mph85%30.27 "Hg1 mi
12:56 AM22 °FLight snow. Ice fog.14 mph89%30.26 "Hg1 mi
11:56 PM
Wed, Mar 4
23 °FHeavy snow. Ice fog.15 mph88%30.24 "Hg0 mi
10:56 PM24 °FHeavy snow. Ice fog.15 mph88%30.26 "Hg0 mi
9:56 PM25 °FLight snow. Ice fog.16 mph88%30.22 "Hg1 mi
8:56 PM26 °FSnow. Ice fog.14 mph92%30.19 "Hg1 mi
7:56 PM28 °FSnow. Ice fog.16 mph93%30.18 "Hg1 mi
6:56 PM29 °FSnow. Ice fog.17 mph89%30.14 "Hg1 mi
5:56 PM32 °FHeavy snow. Fog.14 mph92%30.09 "Hg0 mi
4:56 PM34 °FSleet. Fog.12 mph88%30.05 "Hg1 mi
3:56 PM35 °FSleet. Fog.12 mph88%30.03 "Hg2 mi
3:04 PM35 °FLight rain. Fog.15 mph88%30.01 "Hg2 mi
2:56 PM35 °FSleet. Fog.10 mph88%30.02 "Hg2 mi
1:56 PM36 °FLight rain. Fog.15 mph89%30.03 "Hg2 mi
12:56 PM37 °FLight rain. Fog.12 mph89%30.03 "Hg2 mi
11:56 AM37 °FRain. Fog.13 mph89%30.04 "Hg2 mi
10:56 AM39 °FLight rain. Fog.8 mph89%30.02 "Hg3 mi
9:56 AM39 °FLight rain. Fog.10 mph93%29.99 "Hg4 mi
9:00 AM40 °FLight rain. Fog.14 mph89%29.98 "Hg3 mi
8:00 AM41 °FLight rain. Fog.9 mph93%29.95 "Hg3 mi
6:56 AM42 °FRain. Fog.8 mph92%29.93 "Hg3 mi
Weather by CustomWeather, © 2015

See weather overviewHow to use our weather pages